STARLINK-35611

Satellite information

Favourite Embed

Satellite Type and Status

PAYLOADIN ORBIT

Key statistics

Satellite STARLINK-35611 at a glance.

Uptime

32

Days in orbit

Revolutions

≈ 15.4

Per day

Orbit

LEO

Low Earth Orbit

Inclination

43.0

Latest

Satellite identification and parameters

Extended collection of information and parameters for STARLINK-35611.

Object identification

Identified? True

Debris? False

Object name: STARLINK-35611

International designator: 2025-259F

Object number (NORAD): 66427

Object ID (CCSDS): 66427

Country: UNITED STATES OF AMERICA (US)

Current information (Y/N): Y

Orbital parameters

Period: 93.46 minutes

Inclination: 42.9998 deg

SMA: 6821.989 km

Apoapsis: 444.658 km

Periapsis: 443.049 km

RAAN: 50.957 deg

Eccentricy: 0.00011799

Argument of periapsis: 275.0144 deg

Mean anomaly: 85.0578 deg

Mean motion: 15.40764559 rev/day

Mean motion (dot): 0.00078811 rev/day2

B* drag term: 0.0018704902 1/REarth

Two-line elements (TLE)

Creation date: Dec. 12, 2025, 10:14 a.m.

Reference frame: TEME

Reference center: EARTH

Epoch: Dec. 12, 2025, 5:16 a.m. UTC

TLE line 0: 0 STARLINK-35611

TLE line 1: 1 66427U 25259F 25346.22005684 .00078811 00000-0 18705-2 0 9993

TLE line 2: 2 66427 42.9998 50.9570 0001180 275.0144 85.0578 15.40764559 6080

Live tracking on map

Real-time ground track for satellite STARLINK-35611.

In-orbit conjunctions

There are no conjunctions computed for STARLINK-35611, at the moment. Check back to stay up to date, as we update our databases every day.

Go to all conjunctions

Associated space launch

A batch of 29 satellites for the Starlink mega-constellation - SpaceX's project for space-based Internet communication system.

STARLINK-35611 was lifted into orbit during the mission ‘Falcon 9 Block 5 | Starlink Group 6-87’, on board a Falcon 9 space rocket.

The launch took place on Nov. 11, 2025, 3:21 a.m. from Space Launch Complex 40.

For more information about the launch, click the button.

Launch to space Falcon 9 Block 5 | Starlink Group 6-87
Falcon 9 Block 5 | Starlink Group 6-87

Agency: SpaceX

Status: Launch Successful

Launch date: Nov. 11, 2025, 3:21 a.m. UTC

Rocket: Falcon 9

Launch pad: Space Launch Complex 40

Location: Cape Canaveral SFS, FL, USA

...

Latest news about this satellite

News about space launch
Live coverage: SpaceX to launch 29 Starlink satellites on Falcon 9 rocket from Cape Canaveral

This is the sixth consecutive year of increasing orbital launches from the Sunshine State. Liftoff of the Starlink 6-87 mission from pad 40 at Cape Canaveral Space Force Station is scheduled for 10:21 p.m. EST (0321 UTC).


Newsletter sign-up

Weekly statistics, charts and insights to help you stay on top of the space industry.